Location: West Cummington
(42.4920°N, 72.9680°W)
Time: 08:09:02
(UTC-04:00)

Cosmos 2221 - Visible Passes

Search period start: 01 September 2015 00:00
Search period end: 11 September 2015 00:00
Orbit: 595 x 619 km, 82.5° (Epoch: 31 August)

Date Brightness Start Highest point End Pass type
(mag) Time Alt. Az. Time Alt. Az. Time Alt. Az.
01 Sep 5.7 00:26:51 11° N 00:26:51 11° N 00:27:06 10° N visible
03 Sep 5.6 23:30:23 11° N 23:30:23 11° N 23:30:32 10° N visible
04 Sep 5.6 23:43:50 11° N 23:43:50 11° N 23:44:02 10° N visible
05 Sep 5.8 23:57:17 10° NNW 23:57:17 10° NNW 23:57:21 10° NNW visible
07 Sep 5.5 22:47:15 10° NNE 22:47:15 10° NNE 22:47:17 10° NNE visible
08 Sep 5.5 23:00:39 12° N 23:00:39 12° N 23:00:54 10° N visible
09 Sep 5.6 23:14:03 12° N 23:14:03 12° N 23:14:20 10° N visible
10 Sep 5.7 23:27:25 11° NNW 23:27:25 11° NNW 23:27:32 10° NNW visible
